Weather History for KUNU - July, 2013

Change the Weather History Date:

Wednesday, July 10, 2013

  Actual Average Record
Temperature  
Mean Temperature 69 °F -  
Max Temperature 75 °F 78 °F 99 °F (1976)
Min Temperature 63 °F 59 °F 50 °F (1978)
Cooling Degree Days 4    
Growing Degree Days 19 (Base 50)    
Moisture  
Dew Point 45 °F    
Average Humidity 41    
Maximum Humidity 62    
Minimum Humidity 25    
Precipitation  
Precipitation 0.00 in - - ()
Sea Level Pressure  
Sea Level Pressure 29.94 in    
Wind  
Wind Speed 7 mph (WNW)    
Max Wind Speed 15 mph    
Max Gust Speed 23 mph    
Visibility 10 miles    
Events      
Averages and records for this station are not official NWS values.
T = Trace of Precipitation, MM = Missing Value Source: NWS Daily Summary

Daily Weather History Graph

Daily Weather History Graph

Search for Another Location

Airport or City:

Trip Planner

Search our weather history database for the weather conditions in past years. The results will help you decide how hot, cold, wet, or windy it might be!

Date:

Astronomy

Jul. 10, 2013 Rise Set
Actual Time 5:23 AM CDT 8:36 PM CDT
Civil Twilight 4:49 AM CDT 9:10 PM CDT
Nautical Twilight 4:04 AM CDT 9:55 PM CDT
Astronomical Twilight 3:09 AM CDT 10:50 PM CDT
Moon 7:50 AM CDT (7/10) 9:39 PM CDT (7/10)
Length of Visible Light 16h 21m
Length of Day
15h 12m
Waxing Crescent, 5% of the Moon is Illuminated
Jul 10
Waxing Crescent
Jul 15
First Quarter
Jul 22
Full
Jul 29
Last Quarter
Aug 6
New

Hourly Weather History & Observations

Time (CDT) Temp. Dew Point Humidity Pressure Visibility Wind Dir Wind Speed Gust Speed Precip Events Conditions
12:15 AM 72.7 °F 58.3 °F 60% 29.87 in 5.0 mi WSW 5.8 mph - N/A   Haze
12:35 AM 72.5 °F 58.1 °F 60% 29.86 in 5.0 mi WSW 4.6 mph - N/A   Haze
12:55 AM 72.5 °F 58.5 °F 61% 29.86 in 5.0 mi SSW 5.8 mph - N/A   Haze
1:15 AM 72.1 °F 58.1 °F 61% 29.86 in 4.0 mi SW 6.9 mph - N/A   Haze
1:35 AM 72.5 °F 58.5 °F 61% 29.86 in 5.0 mi SW 6.9 mph - N/A   Haze
1:55 AM 71.6 °F 57.4 °F 61% 29.86 in 7.0 mi SW 5.8 mph - N/A   Clear
2:15 AM 71.8 °F 57.4 °F 60% 29.86 in 7.0 mi SW 4.6 mph - N/A   Clear
2:55 AM 70.3 °F 56.7 °F 62% 29.86 in 7.0 mi WSW 5.8 mph - N/A   Clear
3:15 AM 70.9 °F 56.5 °F 60% 29.86 in 10.0 mi SW 6.9 mph - N/A   Clear
3:35 AM 70.7 °F 55.9 °F 59% 29.86 in 10.0 mi WSW 6.9 mph - N/A   Clear
3:55 AM 71.8 °F 55.4 °F 56% 29.86 in 10.0 mi WSW 8.1 mph - N/A   Clear
4:15 AM 71.1 °F 54.7 °F 56% 29.87 in 10.0 mi WSW 8.1 mph - N/A   Clear
4:35 AM 71.1 °F 54.5 °F 56% 29.87 in 10.0 mi WSW 8.1 mph - N/A   Clear
4:55 AM 70.7 °F 54.1 °F 56% 29.87 in 10.0 mi WSW 8.1 mph - N/A   Clear
5:15 AM 70.2 °F 54.0 °F 56% 29.88 in 10.0 mi WSW 8.1 mph - N/A   Clear
5:35 AM 70.2 °F 54.0 °F 56% 29.89 in 10.0 mi WSW 8.1 mph - N/A   Scattered Clouds
5:55 AM 70.7 °F 53.6 °F 55% 29.89 in 10.0 mi WSW 5.8 mph - N/A   Overcast
6:15 AM 70.3 °F 53.8 °F 56% 29.89 in 10.0 mi West 4.6 mph - N/A   Overcast
6:35 AM 71.6 °F 53.6 °F 53% 29.89 in 10.0 mi NW 6.9 mph - N/A   Overcast
6:55 AM 71.4 °F 53.1 °F 52% 29.89 in 10.0 mi NW 6.9 mph - N/A   Mostly Cloudy
7:15 AM 70.0 °F 51.8 °F 52% 29.90 in 10.0 mi NW 8.1 mph - N/A   Scattered Clouds
7:35 AM 70.9 °F 51.4 °F 50% 29.90 in 10.0 mi NW 9.2 mph 16.1 mph N/A   Clear
7:55 AM 69.8 °F 50.9 °F 51% 29.90 in 10.0 mi NW 9.2 mph - N/A   Mostly Cloudy
8:15 AM 69.3 °F 50.0 °F 50% 29.91 in 10.0 mi NW 8.1 mph - N/A   Scattered Clouds
8:35 AM 69.8 °F 48.4 °F 46% 29.92 in 10.0 mi NW 10.4 mph 16.1 mph N/A   Clear
8:55 AM 70.9 °F 46.6 °F 42% 29.93 in 10.0 mi NW 10.4 mph 20.7 mph N/A   Clear
9:15 AM 70.7 °F 45.0 °F 40% 29.93 in 10.0 mi NW 11.5 mph 19.6 mph N/A   Mostly Cloudy
9:35 AM 71.6 °F 42.3 °F 35% 29.94 in 10.0 mi NW 12.7 mph 23.0 mph N/A   Mostly Cloudy
9:55 AM 71.2 °F 42.1 °F 35% 29.94 in 10.0 mi NNW 15.0 mph 19.6 mph N/A   Overcast
10:15 AM 71.8 °F 40.5 °F 32% 29.94 in 10.0 mi NW 12.7 mph 19.6 mph N/A   Mostly Cloudy
10:35 AM 72.0 °F 40.6 °F 32% 29.94 in 10.0 mi NW 13.8 mph 19.6 mph N/A   Scattered Clouds
10:55 AM 71.6 °F 40.3 °F 32% 29.95 in 10.0 mi NW 10.4 mph 19.6 mph N/A   Scattered Clouds
11:15 AM 72.1 °F 39.7 °F 31% 29.95 in 10.0 mi NW 12.7 mph 16.1 mph N/A   Scattered Clouds
11:35 AM 72.0 °F 40.5 °F 32% 29.95 in 10.0 mi NNW 12.7 mph 17.3 mph N/A   Scattered Clouds
11:55 AM 72.5 °F 38.7 °F 29% 29.96 in 10.0 mi WNW 13.8 mph 18.4 mph N/A   Scattered Clouds
12:15 PM 73.2 °F 38.8 °F 29% 29.97 in 10.0 mi WNW 9.2 mph 16.1 mph N/A   Scattered Clouds
12:35 PM 73.4 °F 37.4 °F 27% 29.97 in 10.0 mi WNW 6.9 mph 16.1 mph N/A   Mostly Cloudy
12:55 PM 73.4 °F 36.3 °F 26% 29.98 in 10.0 mi NW 9.2 mph 17.3 mph N/A   Mostly Cloudy
1:15 PM 73.4 °F 36.9 °F 26% 29.98 in 10.0 mi NW 9.2 mph 17.3 mph N/A   Scattered Clouds
1:35 PM 72.7 °F 37.2 °F 27% 29.98 in 10.0 mi NW 5.8 mph - N/A   Mostly Cloudy
1:55 PM 73.8 °F 38.1 °F 27% 29.98 in 10.0 mi NW 6.9 mph - N/A   Mostly Cloudy
2:15 PM 73.9 °F 37.8 °F 27% 29.98 in 10.0 mi NW 10.4 mph 16.1 mph N/A   Scattered Clouds
2:35 PM 74.5 °F 37.6 °F 26% 29.98 in 10.0 mi NW 9.2 mph 16.1 mph N/A   Scattered Clouds
2:55 PM 74.5 °F 37.0 °F 26% 29.98 in 10.0 mi WNW 6.9 mph - N/A   Mostly Cloudy
3:15 PM 74.7 °F 37.8 °F 26% 29.98 in 10.0 mi West 8.1 mph - N/A   Mostly Cloudy
3:35 PM 74.5 °F 37.2 °F 26% 29.98 in 10.0 mi NW 5.8 mph - N/A   Mostly Cloudy
3:55 PM 74.8 °F 37.4 °F 26% 29.98 in 10.0 mi West 5.8 mph - N/A   Scattered Clouds
4:15 PM 73.9 °F 37.0 °F 26% 29.97 in 10.0 mi WNW 8.1 mph - N/A   Scattered Clouds
4:35 PM 75.0 °F 37.8 °F 26% 29.97 in 10.0 mi NNW 12.7 mph 16.1 mph N/A   Mostly Cloudy
4:55 PM 74.8 °F 36.7 °F 25% 29.97 in 10.0 mi NNW 11.5 mph - N/A   Scattered Clouds
5:15 PM 75.4 °F 36.7 °F 25% 29.97 in 10.0 mi NW 11.5 mph - N/A   Clear
5:35 PM 75.2 °F 36.7 °F 25% 29.97 in 10.0 mi NW 8.1 mph - N/A   Scattered Clouds
5:55 PM 73.6 °F 36.5 °F 26% 29.97 in 10.0 mi NW 8.1 mph - N/A   Scattered Clouds
6:15 PM 74.7 °F 36.9 °F 25% 29.97 in 10.0 mi WNW 6.9 mph - N/A   Clear
6:35 PM 74.3 °F 37.6 °F 26% 29.97 in 10.0 mi WNW 6.9 mph - N/A   Clear
6:55 PM 73.8 °F 39.0 °F 28% 29.97 in 10.0 mi NW 4.6 mph - N/A   Clear
7:15 PM 73.0 °F 39.7 °F 30% 29.97 in 10.0 mi NW 4.6 mph - N/A   Clear
7:35 PM 72.1 °F 39.2 °F 30% 29.97 in 10.0 mi NW 4.6 mph - N/A   Clear
7:55 PM 71.1 °F 40.6 °F 33% 29.98 in 10.0 mi NNW 3.5 mph - N/A   Clear
8:15 PM 69.8 °F 41.2 °F 35% 29.99 in 10.0 mi Calm Calm - N/A   Clear
8:35 PM 68.9 °F 41.9 °F 37% 29.99 in 10.0 mi Calm Calm - N/A   Clear
8:55 PM 67.5 °F 42.1 °F 40% 30.00 in 10.0 mi Calm Calm - N/A   Clear
9:15 PM 66.6 °F 42.3 °F 41% 30.01 in 10.0 mi NNW 3.5 mph - N/A   Clear
9:35 PM 65.8 °F 43.5 °F 44% 30.02 in 10.0 mi Calm Calm - N/A   Clear
9:55 PM 66.2 °F 42.4 °F 42% 30.02 in 10.0 mi Calm Calm - N/A   Clear
10:15 PM 64.4 °F 43.2 °F 46% 30.02 in 10.0 mi Calm Calm - N/A   Clear
10:35 PM 64.9 °F 41.9 °F 43% 30.03 in 10.0 mi NNW 3.5 mph - N/A   Clear
10:55 PM 64.4 °F 42.1 °F 44% 30.03 in 10.0 mi NNW 3.5 mph - N/A   Clear
11:15 PM 63.7 °F 41.9 °F 45% 30.04 in 10.0 mi Calm Calm - N/A   Clear
11:35 PM 63.5 °F 41.9 °F 45% 30.04 in 10.0 mi North 3.5 mph - N/A   Clear
11:55 PM 63.1 °F 42.1 °F 46% 30.04 in 10.0 mi NNW 3.5 mph - N/A   Clear